User: anonymous   Login
Location: Unspecified
(43.3830°N, 0.0000°E)
Time: 19:24:08
(UTC+00:00)
Language:

Vanguard 2 - Orbit

View from above orbital plane
View from above orbital plane
View from above satellite
View from above satellite

Ground track
Ground track

The orbit data is extracted from the following two-line orbital elements,

1    11U 59001A   19172.64614535 -.00000107  00000-0 -57302-4 0  9992
2    11  32.8720 333.7051 1468639   9.0650 353.3671 11.85619002573764
Epoch (UTC): 21 June 2019 15:30:26
Eccentricity: 0.1468639
inclination: 32.8720°
perigee height: 553 km
apogee height: 2939 km
right ascension of ascending node: 333.7051°
argument of perigee: 9.0650°
revolutions per day: 11.85619002
mean anomaly at epoch: 353.3671°
orbit number at epoch: 57376

The dashed part of the orbit path shows where the satellite is in the earth's shadow,  

DLR